Weather History for Cecil Field, FL

Change the Weather History Date:

Thursday, September 19, 2013

  Actual Average (KJAX) Record (KJAX)
Temperature  
Mean Temperature 75 °F 78 °F  
Max Temperature 82 °F 86 °F 96 °F (1942)
Min Temperature 68 °F 69 °F 48 °F (1981)
Degree Days  
Heating Degree Days 0 0  
Month to date heating degree days 0  
Since 1 July heating degree days 0  
Cooling Degree Days 10 13  
Month to date cooling degree days 272  
Year to date cooling degree days 2262  
Growing Degree Days 25 (Base 50)    
Moisture  
Dew Point 71 °F    
Average Humidity 96    
Maximum Humidity 100    
Minimum Humidity 74    
Precipitation  
Precipitation 0.00 in 0.29 in 2.84 in (1887)
Month to date precipitation 5.38  
Year to date precipitation 40.74  
Snow  
Snow 0.00 in 0.00 in 0.00 in (2002)
Month to date snowfall 0.0  
Since 1 July snowfall 0.0  
Since 1 September snowfall 0.0  
Snow Depth -    
Sea Level Pressure  
Sea Level Pressure 30.07 in    
Wind  
Wind Speed 1 mph (NE)    
Max Wind Speed 10 mph    
Max Gust Speed -    
Visibility 8 miles    
Events Rain , Thunderstorm    
T = Trace of Precipitation, MM = Missing Value Source: NWS Daily Summary

Daily Weather History Graph

Daily Weather History Graph

Search for Another Location

Airport:

Trip Planner

Search our weather history database for the weather conditions in past years. The results will help you decide how hot, cold, wet, or windy it might be!

Date:

Astronomy

Sep. 19, 2013 Rise Set
Actual Time 7:14 AM EDT 7:27 PM EDT
Civil Twilight 6:50 AM EDT 7:51 PM EDT
Nautical Twilight 6:22 AM EDT 8:19 PM EDT
Astronomical Twilight 5:54 AM EDT 8:47 PM EDT
Moon 7:30 PM EDT (9/19) 7:18 AM EDT (9/19)
Length of Visible Light 13h 01m
Length of Day
12h 13m
Full, 100% of the Moon is Illuminated
Sep 19
Full
Sep 26
Last Quarter
Oct 4
New
Oct 11
First Quarter
Oct 18
Full

Hourly Weather History & Observations

Time (EDT) Temp. Heat Index Dew Point Humidity Pressure Visibility Wind Dir Wind Speed Gust Speed Precip Events Conditions
12:15 AM 69.8 °F - 69.8 °F 100% 30.10 in 9.0 mi Calm Calm - N/A   Clear
12:35 AM 69.8 °F - 69.8 °F 100% 30.09 in 9.0 mi Calm Calm - N/A   Clear
12:55 AM 69.8 °F - 69.8 °F 100% 30.09 in 7.0 mi Calm Calm - N/A Thunderstorm Thunderstorm
1:15 AM 69.8 °F - 69.8 °F 100% 30.09 in 7.0 mi Calm Calm - N/A   Mostly Cloudy
1:35 AM 69.8 °F - 69.8 °F 100% 30.08 in 9.0 mi Calm Calm - N/A   Mostly Cloudy
1:55 AM 69.8 °F - 69.8 °F 100% 30.08 in 8.0 mi Calm Calm - N/A   Mostly Cloudy
2:15 AM 71.6 °F - 71.6 °F 100% 30.07 in 8.0 mi Calm Calm - N/A   Overcast
2:35 AM 71.6 °F - 71.6 °F 100% 30.07 in 9.0 mi Calm Calm - N/A   Overcast
2:55 AM 71.6 °F - 71.6 °F 100% 30.06 in 9.0 mi Calm Calm - N/A   Mostly Cloudy
3:15 AM 71.6 °F - 71.6 °F 100% 30.06 in 8.0 mi Calm Calm - N/A   Mostly Cloudy
3:35 AM 71.6 °F - 71.6 °F 100% 30.06 in 8.0 mi Calm Calm - N/A   Overcast
3:55 AM 71.6 °F - 71.6 °F 100% 30.05 in 8.0 mi Calm Calm - N/A   Mostly Cloudy
4:15 AM 71.6 °F - 71.6 °F 100% 30.05 in 9.0 mi Calm Calm - N/A   Scattered Clouds
4:35 AM 71.6 °F - 71.6 °F 100% 30.05 in - Calm Calm - N/A   Unknown
4:55 AM 71.6 °F - 71.6 °F 100% 30.05 in 7.0 mi Calm Calm - N/A   Clear
5:15 AM 69.8 °F - 69.8 °F 100% 30.05 in 7.0 mi Calm Calm - N/A   Clear
5:35 AM 69.8 °F - 69.8 °F 100% 30.05 in 7.0 mi Calm Calm - N/A   Clear
5:55 AM 69.8 °F - 69.8 °F 100% 30.05 in - Calm Calm - N/A   Unknown
6:15 AM 69.8 °F - 69.8 °F 100% 30.06 in 6.0 mi Calm Calm - N/A   Clear
6:35 AM 68.0 °F - 68.0 °F 100% 30.06 in - Calm Calm - N/A   Unknown
6:50 AM 68.0 °F - 68.0 °F 100% 30.06 in 7.0 mi North 8.1 mph - N/A   Clear
7:50 AM 68.0 °F - 68.0 °F 100% 30.07 in 7.0 mi North 5.8 mph - N/A   Clear
8:50 AM 73.4 °F - 71.6 °F 94% 30.08 in 7.0 mi North 5.8 mph - N/A   Clear
9:50 AM 77.0 °F - 73.4 °F 89% 30.09 in 7.0 mi NNE 5.8 mph - N/A   Clear
10:50 AM 80.6 °F 85.4 °F 73.4 °F 79% 30.10 in 7.0 mi NNE 5.8 mph - N/A   Clear
11:50 AM 82.4 °F 88.2 °F 73.4 °F 74% 30.10 in 7.0 mi NE 4.6 mph - N/A   Mostly Cloudy
12:50 PM 80.6 °F 85.4 °F 73.4 °F 79% 30.10 in 7.0 mi NE 8.1 mph - N/A   Mostly Cloudy
1:50 PM 82.4 °F 88.2 °F 73.4 °F 74% 30.08 in 10.0 mi East 6.9 mph - N/A   Mostly Cloudy
2:50 PM 82.4 °F 88.2 °F 73.4 °F 74% 30.06 in 10.0 mi East 5.8 mph - N/A   Scattered Clouds
3:50 PM 73.4 °F - 71.6 °F 94% 30.07 in 4.0 mi East 10.4 mph - N/A Rain Light Rain
4:50 PM 73.4 °F - 71.6 °F 94% 30.06 in 7.0 mi East 9.2 mph - N/A   Mostly Cloudy
5:50 PM 77.0 °F - 73.4 °F 89% 30.05 in 10.0 mi East 6.9 mph - N/A   Clear
6:50 PM 77.0 °F - 73.4 °F 89% 30.06 in 10.0 mi ENE 5.8 mph - N/A   Clear
7:50 PM 75.2 °F - 73.4 °F 94% 30.06 in 10.0 mi NE 3.5 mph - N/A   Clear
8:15 PM 71.6 °F - 71.6 °F 100% 30.07 in 7.0 mi Calm Calm - N/A   Clear
8:35 PM 71.6 °F - 71.6 °F 100% 30.07 in 6.0 mi Calm Calm - N/A   Clear
8:55 PM 71.6 °F - 71.6 °F 100% 30.07 in 8.0 mi Calm Calm - N/A   Clear
9:15 PM 71.6 °F - 71.6 °F 100% 30.08 in 9.0 mi Calm Calm - N/A   Clear
9:35 PM 71.6 °F - 71.6 °F 100% 30.08 in 10.0 mi Calm Calm - N/A   Clear
9:55 PM 71.6 °F - 71.6 °F 100% 30.08 in 9.0 mi Calm Calm - N/A   Clear
10:15 PM 71.6 °F - 71.6 °F 100% 30.08 in 8.0 mi Calm Calm - N/A   Clear
10:35 PM 71.6 °F - 71.6 °F 100% 30.08 in 7.0 mi Calm Calm - N/A   Clear
10:55 PM 71.6 °F - 71.6 °F 100% 30.08 in 7.0 mi Calm Calm - N/A   Clear
11:15 PM 69.8 °F - 69.8 °F 100% 30.07 in 5.0 mi Calm Calm - N/A   Clear
11:35 PM 69.8 °F - 69.8 °F 100% 30.07 in 5.0 mi Calm Calm - N/A   Clear
11:55 PM 68.0 °F - 68.0 °F 100% 30.07 in 4.0 mi Calm Calm - N/A   Clear